Theta_e
316 319 324 325 328 330 331 332 332 331 330 331 331 330 329 328 327 327 326 325 325 325 325 324 323 322 323 322 322 321 321 320 317 314 311 309 307 306 305 303 302 301 299
311 315 320 323 324 326 328 329 330 331 331 331 331 329 328 327 327 326 325 325 324 324 323 323 322 321 321 320 320 320 319 318 314 309 307 305 304 303 302 300 299 299 297
310 312 317 321 323 325 326 327 328 329 330 330 330 329 328 327 326 326 325 325 324 324 323 321 321 321 319 319 319 317 316 314 312 308 306 303 302 301 299 297 295 295 294
309 310 313 319 322 324 325 326 327 328 329 329 328 328 327 326 325 325 325 325 325 323 321 321 321 320 320 319 317 316 313 311 308 304 302 301 299 297 296 293 294 293 292
309 308 309 312 317 322 324 325 326 325 325 326 325 325 325 325 324 324 324 323 322 322 321 320 320 319 318 318 316 314 311 308 304 301 298 296 296 295 293 293 292 292 292
310 308 307 308 313 318 320 324 323 323 323 323 324 324 323 323 322 322 322 322 321 321 319 318 317 315 316 314 312 311 310 307 303 300 296 296 295 295 293 292 291 290 291
309 309 307 306 308 313 315 317 320 321 321 322 321 321 321 320 321 320 320 320 319 318 317 315 314 311 310 308 306 304 302 300 301 301 298 297 295 295 293 291 290 291 290
308 308 308 306 306 306 311 315 316 317 317 319 319 319 319 318 317 317 317 317 316 315 315 313 311 308 305 304 301 299 298 297 297 296 296 295 294 292 291 291 291 289 287
305 305 306 306 305 304 304 310 313 313 314 314 315 315 314 314 312 313 312 312 312 310 309 307 307 304 302 300 299 296 295 294 293 293 292 292 291 290 291 290 287 286 286
302 303 304 304 304 303 303 302 308 311 312 311 311 312 312 311 310 309 308 308 306 304 303 302 300 300 299 298 298 295 293 292 292 291 291 290 290 289 287 286 286 285 286
298 299 300 302 303 303 303 302 300 304 306 306 306 306 306 306 306 305 304 304 304 300 298 296 296 296 296 295 296 295 294 292 290 290 289 287 286 286 285 285 285 285 285
295 296 297 299 300 301 301 299 297 298 298 298 299 300 302 302 302 302 302 301 301 299 296 295 294 293 293 293 293 292 292 290 288 288 286 286 286 285 286 285 285 285 285
293 294 294 296 298 299 298 296 296 296 296 295 295 295 295 298 298 298 299 299 298 297 297 294 292 291 290 290 290 290 289 288 287 286 286 286 286 285 285 285 285 284 284
290 292 293 293 294 294 294 295 294 294 295 295 294 295 294 293 293 295 295 294 294 295 293 290 290 290 290 289 289 289 288 287 286 287 287 285 285 284 284 284 283 283 283
287 290 291 292 292 293 293 294 293 294 295 295 295 295 294 291 292 293 292 291 291 291 289 288 288 287 287 287 287 287 286 286 286 286 285 285 283 283 283 282 282 282 282
285 287 289 291 292 292 293 292 293 293 294 295 295 295 294 293 292 292 291 290 290 289 288 286 285 285 285 285 285 285 285 285 284 284 283 283 282 282 282 281 281 281 281
276 280 285 289 291 292 292 292 292 290 293 294 295 294 293 293 291 291 291 289 288 287 287 286 286 286 286 285 285 284 283 284 282 282 281 282 282 282 282 281 281 280 279
272 276 281 287 290 291 292 292 292 292 290 289 291 292 291 292 291 291 290 289 288 288 287 287 286 286 285 284 284 283 282 280 280 281 281 281 280 280 279 278 278 278 277
271 275 280 287 290 291 291 291 291 291 290 289 288 289 289 289 290 290 289 289 288 287 286 286 285 284 283 283 282 281 280 279 279 279 278 278 277 276 276 276 275 274 274
273 277 282 285 289 290 290 290 290 289 289 288 288 288 288 288 289 289 289 287 287 285 284 284 283 283 282 281 280 279 278 277 276 276 276 275 275 274 274 273 272 272 272
274 276 280 282 284 286 289 289 289 289 288 287 287 286 288 288 288 284 283 283 283 283 283 283 281 281 280 279 278 277 276 275 275 274 274 273 273 272 272 271 271 270 270
273 274 275 276 278 279 280 281 282 281 279 279 280 282 281 280 279 279 281 282 282 282 281 280 279 278 278 277 276 275 275 274 273 273 272 272 271 271 270 270 269 269 268
271 272 272 272 273 274 274 275 276 276 275 275 275 277 278 278 278 279 278 278 277 277 277 277 276 275 275 275 275 275 275 274 273 273 272 271 270 269 269 269 268 267 267
268 269 270 271 271 271 271 271 271 271 272 272 272 273 273 273 273 274 274 273 274 273 273 274 274 275 274 274 274 273 273 272 272 272 271 270 269 268 268 267 267 267 267
266 267 267 268 268 269 270 270 270 270 270 270 270 270 271 271 271 271 272 271 271 272 272 273 273 273 273 272 272 271 271 271 270 270 269 269 268 267 267 267 266 266 266
264 265 265 265 266 266 267 267 267 267 268 268 268 269 269 269 269 269 269 270 270 270 271 271 271 271 270 270 270 269 269 269 269 269 268 268 267 266 266 266 266 265 265
Wind_Speed
18 21 26 30 33 34 34 35 36 36 36 37 37 38 40 39 38 36 36 32 34 31 34 37 35 34 33 33 32 32 30 28 12 6 12 13 13 12 13 14 13 13 14
16 19 24 27 30 31 35 35 35 36 36 36 37 37 38 38 35 36 33 34 34 33 33 32 34 34 31 31 30 28 27 25 19 10 10 12 10 10 11 12 11 11 11
17 18 21 25 28 30 33 35 33 34 35 34 34 35 38 36 34 35 35 36 36 35 34 35 36 33 31 29 27 25 23 20 18 15 12 11 10 10 11 11 10 10 11
20 20 21 24 26 28 30 31 32 33 35 36 38 38 37 37 37 36 35 36 35 35 36 35 33 31 29 27 25 24 21 20 19 17 14 13 11 9 9 9 7 6 6
24 22 24 23 24 27 27 29 30 33 35 35 36 37 37 35 37 36 35 35 35 35 32 30 28 27 24 22 26 24 23 21 19 16 10 7 7 8 8 4 3 7 7
27 27 25 23 23 26 29 29 31 32 33 33 34 36 36 36 36 35 35 35 34 32 31 27 25 23 22 22 21 20 21 22 22 16 11 7 12 8 6 4 4 4 3
31 32 30 26 27 28 27 29 31 34 34 34 35 35 36 37 36 35 34 33 32 31 29 27 25 23 22 20 18 17 16 15 16 17 13 12 9 9 8 6 5 4 3
36 37 36 32 31 29 26 28 33 33 35 35 36 37 36 36 33 31 29 30 28 29 28 28 26 23 21 19 19 17 15 14 11 10 11 11 8 8 7 5 6 4 6
41 41 42 39 35 31 30 31 33 34 34 35 35 34 33 31 27 26 25 26 26 25 24 24 24 23 21 21 21 19 15 14 12 11 10 10 8 7 6 6 4 2 1
35 41 45 40 38 34 34 34 34 35 36 34 33 32 31 29 28 26 27 26 25 24 22 22 21 21 22 23 22 22 21 19 18 15 12 10 11 8 6 5 6 5 2
38 42 44 42 39 38 36 34 30 31 33 32 31 30 28 28 28 29 28 27 28 27 26 23 22 22 21 22 20 21 20 20 17 16 13 11 11 9 7 6 5 5 4
38 38 40 42 39 35 33 32 29 28 27 27 27 28 29 30 30 31 32 30 26 27 27 25 23 21 22 20 20 19 17 21 19 17 16 13 12 9 8 6 4 3 4
40 38 36 37 35 32 30 27 26 27 26 22 24 23 25 31 31 31 31 30 28 28 28 26 23 22 21 19 19 21 22 20 20 18 17 14 11 10 7 6 4 2 0
39 39 36 30 27 26 25 24 25 25 25 24 23 23 22 26 30 32 31 29 27 26 24 24 25 26 24 22 21 21 20 20 21 20 18 15 13 10 9 7 6 3 1
38 36 34 29 24 24 26 26 29 32 33 29 29 27 25 23 30 32 32 32 32 31 31 29 26 25 24 23 22 22 20 20 20 19 19 17 13 11 9 6 6 4 3
36 31 29 29 25 24 23 22 30 33 33 34 30 31 27 27 26 31 32 31 32 35 31 24 21 21 21 22 22 22 22 22 22 20 18 16 14 12 10 7 5 3 2
35 36 33 30 27 25 22 19 15 18 26 32 34 31 30 30 28 33 31 26 28 29 23 23 22 22 21 22 21 22 20 22 19 18 16 14 14 12 10 9 6 4 2
34 32 32 31 30 27 24 22 20 19 19 16 25 30 30 31 32 36 36 30 27 21 19 21 21 21 22 22 22 22 23 21 19 18 17 15 13 11 9 7 5 4 3
32 29 28 29 28 26 23 21 21 21 20 18 17 22 28 32 36 39 39 31 27 22 18 20 22 24 25 25 26 25 24 22 19 17 15 12 11 11 11 9 8 5 3
29 28 27 26 24 22 21 19 19 20 19 20 22 23 29 31 30 31 32 27 25 23 23 26 27 28 28 26 25 24 21 18 17 16 14 13 12 11 11 10 8 8 6
27 26 23 19 15 11 14 13 14 15 15 16 15 22 32 31 30 26 25 27 30 30 28 28 27 27 26 25 23 21 19 18 16 15 14 13 12 12 11 10 10 8 7
25 21 19 16 13 12 12 9 7 6 8 11 14 13 15 19 20 23 25 23 23 25 26 28 28 26 25 24 22 20 18 17 16 15 15 14 13 12 12 11 10 10 8
25 23 22 23 23 23 21 19 16 15 14 14 15 15 17 17 19 20 20 19 19 20 21 23 23 22 20 19 17 16 17 18 16 15 15 14 14 14 13 13 11 10 7
29 29 29 27 27 24 22 21 20 22 20 18 16 15 14 13 13 14 15 15 16 16 16 17 16 16 16 15 15 15 15 15 15 15 15 15 15 14 14 13 11 9 6
31 30 29 26 26 24 23 23 23 22 23 22 19 18 15 11 10 10 10 11 11 11 11 11 11 11 11 13 14 14 15 16 15 15 15 15 15 15 14 13 11 9 8
29 27 25 26 26 26 24 24 24 23 22 21 18 15 12 10 8 6 4 3 4 5 7 8 8 9 10 12 13 14 15 15 15 15 16 16 17 16 15 14 12 10 9
Wind_Direction
264 259 250 248 242 238 237 236 236 235 230 229 224 225 224 227 227 226 226 229 231 229 232 233 238 242 239 242 245 248 245 244 242 240 219 233 250 260 270 271 270 274 277
271 259 255 251 248 243 241 241 238 238 235 230 225 223 223 225 227 224 227 228 228 227 232 233 237 235 236 243 246 245 244 244 238 219 227 234 244 263 270 270 272 274 282
292 272 260 253 252 250 243 240 239 237 235 230 226 222 226 229 229 228 227 228 231 231 232 233 232 235 241 241 238 234 233 231 229 223 219 228 241 252 264 266 271 285 291
293 282 269 261 255 249 249 246 243 239 236 230 232 231 232 230 228 228 227 228 229 231 232 235 239 239 238 234 232 227 220 220 222 222 224 235 243 249 258 268 281 286 310
300 287 281 276 263 253 247 243 243 242 241 239 238 236 235 230 230 228 227 226 228 232 233 235 235 234 232 234 225 220 219 217 214 214 205 197 210 230 229 240 298 303 326
302 295 296 284 270 255 252 244 242 241 239 237 236 234 233 233 232 229 231 225 225 228 225 225 226 225 231 226 226 227 232 223 220 210 187 194 231 216 206 231 258 308 348
306 302 298 290 276 264 257 250 246 238 234 232 230 229 227 228 228 228 228 228 226 222 223 220 215 215 215 215 217 216 211 213 222 221 205 214 213 207 194 196 209 250 255
315 303 299 292 286 271 258 247 247 245 241 235 232 230 230 231 230 233 233 229 227 223 225 219 215 214 214 210 204 199 196 200 204 193 190 185 202 191 194 196 210 249 323
313 310 308 300 292 278 263 251 245 243 241 240 240 237 233 232 227 227 216 218 215 214 214 216 217 213 209 199 192 185 181 174 174 179 168 165 181 193 204 192 146 130 2
315 312 310 305 296 283 271 258 247 242 240 237 235 234 233 231 226 218 212 215 212 210 210 209 208 206 198 196 194 187 178 176 174 172 167 169 160 165 158 165 165 171 168
315 314 312 306 296 286 277 262 247 237 238 232 231 231 230 227 222 214 214 216 216 210 204 196 196 193 191 191 195 191 189 176 171 170 160 161 166 161 161 160 166 173 176
312 308 306 307 299 282 268 259 245 234 226 226 225 223 223 223 222 218 214 213 214 211 207 199 189 182 182 183 182 178 175 166 163 161 152 152 155 162 165 183 189 193 216
310 304 301 301 297 279 260 244 230 222 224 214 209 214 214 217 216 214 208 210 211 207 208 195 180 173 168 167 164 157 159 161 158 154 158 167 174 174 176 150 148 147 208
304 302 301 294 280 272 255 241 232 218 216 219 212 213 211 206 206 208 207 204 204 203 190 176 167 166 168 165 161 169 168 167 165 165 164 164 162 161 164 157 157 165 224
305 301 298 292 276 265 250 241 235 235 221 213 217 215 200 202 208 204 195 187 186 183 167 160 158 159 157 161 166 168 166 168 167 163 165 166 164 164 165 167 167 175 198
300 299 298 293 280 266 257 248 241 244 238 225 222 215 214 213 203 199 198 193 188 173 161 160 166 168 167 167 167 164 167 168 169 167 168 167 168 169 169 174 179 183 234
297 294 292 287 281 268 258 241 242 237 235 227 221 218 211 210 197 191 189 182 174 168 169 168 170 173 170 168 166 164 163 174 170 164 163 168 173 174 175 171 177 193 233
295 289 286 280 274 266 256 247 236 231 225 209 207 205 205 200 192 186 179 169 176 186 175 169 169 167 162 163 165 165 168 165 167 167 172 180 185 190 190 188 203 212 236
294 289 285 279 271 260 248 240 234 228 219 204 181 189 194 194 184 176 175 175 175 174 176 162 161 163 165 168 173 174 172 169 168 171 177 181 182 187 188 198 207 212 224
301 295 295 296 268 259 247 237 233 221 210 197 193 188 172 166 170 174 174 167 168 159 164 164 171 173 173 174 174 172 169 169 171 176 178 181 184 189 192 196 198 197 202
314 311 310 309 318 302 254 236 231 218 206 198 183 179 174 170 167 161 153 153 155 163 174 174 172 171 171 172 172 173 174 174 178 181 183 185 188 188 195 198 198 200 203
342 342 352 357 9 23 35 53 65 88 102 110 111 114 134 129 124 128 140 152 165 175 178 176 171 171 172 174 174 176 178 180 185 188 191 192 192 194 195 195 194 197 202
3 12 18 23 26 30 35 44 54 64 78 84 98 98 108 117 131 140 143 150 160 166 170 172 168 165 168 173 178 184 188 192 193 195 196 198 199 200 200 198 199 199 203
14 20 23 26 31 35 37 40 44 53 59 64 75 84 90 100 111 125 140 147 157 161 164 165 168 168 174 178 187 193 196 197 198 199 200 203 204 203 205 207 211 213 208
16 21 23 22 28 29 32 36 40 44 52 56 57 64 70 84 100 117 135 151 160 163 168 173 179 185 192 198 201 202 204 206 204 205 205 207 209 212 212 214 215 219 223
15 18 22 24 23 24 29 33 34 33 36 42 47 53 59 63 69 79 100 145 176 190 200 208 210 208 213 215 214 215 215 214 213 212 211 212 214 216 218 222 225 229 231